Location: Newark
(27.9675°N, 86.8869°E)
Time: 11:14:57
(UTC+00:00)

Altair - Pass Details

Date: 29 October 2019
Orbit: 1502 x 1682 km, 47.2° (Epoch: 20 November)

Event Time Altitude Azimuth Distance (km) Brightness Sun altitude
Rises 00:35:47 0° 206° (SSW) 4,620 9.9 2.3°
Reaches altitude 10° 00:38:56 10° 200° (SSW) 3,643 9.5 2.9°
Maximum altitude 00:47:31 46° 130° (SE) 1,939 8.9 4.8°
Drops below altitude 10° 00:56:18 10° 61° (ENE) 3,732 10.2 6.6°
Sets 00:59:33 0° 55° (NE) 4,742 10.6 7.3°
